sat.trackr.live / text

‹ back to catalog

O3B FM7

NORAD 40080 · 2014-038B

PAYLOAD ACTIVE UNKNOWN

§ Identity

Operator
Country
O3B
Launch date
2014-07-10
Launch site
FRGUI
Launch vehicle
Mass (kg)
RCS (m²)
1.40

Purposes: comms

External: N2YO · Heavens-Above · Gunter

§ Orbital elements

Epoch: 2026-05-22T15:58:48.200160Z

Period
287.93 min
Inclination
0.0504°
Eccentricity
0.0004017
Mean motion
5.00115771 rev/d
Perigee alt
8,060.1 km
Apogee alt
8,071.7 km
Semi-major
14,444.0 km
B*
0.0000e+0
RAAN
346.1892°
Arg perigee
52.7384°
Mean anomaly
321.1003°
Rev number
21,660

§ Raw data

O3B FM71 40080U 14038B   26142.66583565 -.00000025  00000+0  00000+0 0  99932 40080   0.0504 346.1892 0004017  52.7384 321.1003  5.00115771216609

JSON: /api/v1/satellites/40080 · /tle

For live sub-satellite position, see the globe view (requires WebGL).

§ Visibility from observer

Set your observer location to see the next 7 days of passes ≥ 10°. The values pass through the URL so the page stays shareable.

No JS? Fill the form by hand. The geolocation button needs JavaScript.